This is the latest recevied weather packets stored in our database for station/object K3RUP-1. If no packets are shown the sender has not sent any weather packets the latest 10 day(s).
| Time | Temp. | Humidity | Pressure | Rain* | Wind** | Luminosity | Snow |
|---|---|---|---|---|---|---|---|
| 1788380836 | 22.78° C | 99% | 1017 hPa | 0 mm | - | 63 W/m² | - |
| 1788380533 | 22.78° C | 99% | 1017.2 hPa | 0 mm | - | 73 W/m² | - |
| 1788380230 | 22.78° C | 99% | 1017.5 hPa | 0 mm | - | 85 W/m² | - |
| 1788379928 | 22.78° C | 99% | 1017.3 hPa | 0 mm | - | 92 W/m² | - |
| 1788379623 | 22.78° C | 99% | 1017 hPa | 0 mm | - | 101 W/m² | - |
| 1788379320 | 22.78° C | 99% | 1016.9 hPa | 0 mm | - | 108 W/m² | - |
| 1788379015 | 22.78° C | 99% | 1017 hPa | 0 mm | - | 108 W/m² | - |
| 1788378714 | 22.78° C | 99% | 1017.1 hPa | 0 mm | - | 106 W/m² | - |
| 1788378413 | 22.78° C | 99% | 1016.8 hPa | 0 mm | - | 107 W/m² | - |
| 1788378108 | 22.78° C | 99% | 1016.8 hPa | 0 mm | - | 122 W/m² | - |
| 1788377804 | 22.78° C | 99% | 1016.9 hPa | 0 mm | - | 149 W/m² | - |
| 1788377504 | 22.78° C | 99% | 1017.1 hPa | 0 mm | - | 172 W/m² | - |
| 1788377203 | 22.78° C | 99% | 1016.8 hPa | 0 mm | - | 170 W/m² | - |
| 1788376897 | 22.22° C | 99% | 1016.7 hPa | 0 mm | - | 154 W/m² | - |
| 1788376591 | 22.22° C | 99% | 1016.7 hPa | 0 mm | - | 75 W/m² | - |
| 1788376285 | 22.22° C | 99% | 1016.8 hPa | 0 mm | - | 51 W/m² | - |
| 1788375981 | 22.22° C | 99% | 1017.2 hPa | 0 mm | - | 39 W/m² | - |
| 1788375676 | 21.67° C | 99% | 1017.1 hPa | 0 mm | - | 31 W/m² | - |
| 1788375372 | 21.67° C | 99% | 1017.2 hPa | 0 mm | - | 23 W/m² | - |
| 1788375068 | 21.67° C | 99% | 1017.2 hPa | 0 mm | - | 26 W/m² | - |
| 1788374763 | 22.22° C | 99% | 1017.3 hPa | 0 mm | - | 44 W/m² | - |
| 1788374458 | 22.22° C | 99% | 1017.4 hPa | 0 mm | - | 61 W/m² | - |
| 1788374154 | 21.67° C | 99% | 1017.3 hPa | 0 mm | - | 56 W/m² | - |
| 1788373851 | 22.22° C | 99% | 1017.4 hPa | 0 mm | - | 44 W/m² | - |
| 1788373546 | 21.67° C | 99% | 1017.4 hPa | 0 mm | - | 30 W/m² | - |
* Rain latest hour (hover to see other rain measurements)
** Current wind speed in m/s (hover to see current wind gust speed)